BADALONA



more information


aviso para Tormentas more information blitzortung!


aviso para Lluvia  rain snow radar


Visita nuestra red de sitios de meteo:

Template documentation
and downloads

And another site



Hay múltiples Alarmas Climaticas   Haga clic aquí para obtener más información

Pagina Historial Weather Underground texto

Diario Resumen May 22, 2018 Unidades:  Métrico    impérial   Tanto
« Anterior Dia
Siguiente Dia »
Diario Semana Mensual Anual Personalizada
  Actual: Alto: Baja: Media:
Temperatura: -6.2 °C -17.8 °C -8.1 °C -7.5 °C
Punto de rocío: -8.5 °C -17.8 °C -10.7 °C -9.8 °C
Humedad: 77 % Humidity % 69 % 77 %
Velocidad del Viento: 18.2 km/h 0 km/h 0 km/h 7.4 km/h
Ráfagas de viento: 20.8 km/h 0 km/h - -
Viento:SE - - SSE
Pression baro: 34337.4 hPa 0 hPa 34235.8 hPa -
Précipitaciones: 0 mm      
Historical Graphs
 
 
Datos de tabla para May 22, 2018
Tiempo Temperatura Punto de rocío Pression baro Viento Velocidad del Viento Ráfagas de viento Humedad Las precipitaciones Rate ( Hora )
-17.8 °C -17.8 °C 0 hPa Calm     Humidity % 0 mm
00:03 -7.4 °C -10.7 °C 34269.7 hPa Calm     69 % 0 mm
00:08 -7.5 °C -10.6 °C 34269.7 hPa Calm     70 % 0 mm
00:13 -7.6 °C -10.7 °C 34269.7 hPa Calm     70 % 0 mm
00:18 -7.6 °C -10.7 °C 34256.2 hPa Calm     70 % 0 mm
00:23 -7.6 °C -10.7 °C 34256.2 hPa Calm     70 % 0 mm
00:28 -7.6 °C -10.7 °C 34256.2 hPa Calm     70 % 0 mm
00:33 -7.7 °C -10.7 °C 34256.2 hPa Calm     70 % 0 mm
00:38 -7.7 °C -10.7 °C 34256.2 hPa West 2.6 km/h 2.6 km/h 71 % 0 mm
00:43 -7.7 °C -10.6 °C 34256.2 hPa Calm   2.6 km/h 71 % 0 mm
00:48 -7.7 °C -10.6 °C 34246 hPa Calm   2.6 km/h 71 % 0 mm
00:53 -7.7 °C -10.7 °C 34246 hPa SW 7.7 km/h 7.7 km/h 71 % 0 mm
00:58 -7.8 °C -10.7 °C 34246 hPa WNW 5.1 km/h 7.7 km/h 72 % 0 mm
01:03 -7.8 °C -10.7 °C 34246 hPa WNW 2.6 km/h 15.6 km/h 72 % 0 mm
01:08 -7.8 °C -10.7 °C 34246 hPa West 10.3 km/h 10.3 km/h 72 % 0 mm
01:13 -7.9 °C -10.7 °C 34235.8 hPa West 2.6 km/h 10.3 km/h 72 % 0 mm
01:18 -7.9 °C -10.7 °C 34235.8 hPa Calm   2.6 km/h 72 % 0 mm
01:23 -7.8 °C -10.7 °C 34235.8 hPa WSW 3.1 km/h 3.1 km/h 72 % 0 mm
01:27 -7.9 °C -10.7 °C 34235.8 hPa Calm     72 % 0 mm
01:32 -7.9 °C -10.7 °C 34235.8 hPa Calm     72 % 0 mm
01:37 -7.9 °C -10.7 °C 34235.8 hPa Calm   2.6 km/h 73 % 0 mm
01:42 -7.9 °C -10.7 °C 34235.8 hPa Calm     73 % 0 mm
01:47 -7.9 °C -10.7 °C 34235.8 hPa West 15.6 km/h 15.6 km/h 73 % 0 mm
01:52 -7.9 °C -10.6 °C 34235.8 hPa Calm   7.7 km/h 73 % 0 mm
01:54 -7.9 °C -10.7 °C 34235.8 hPa WNW 2.6 km/h 7.7 km/h 72 % 0 mm
01:55 -7.9 °C -10.7 °C 34235.8 hPa Calm   7.7 km/h 72 % 0 mm
02:00 -7.9 °C -10.7 °C 34235.8 hPa NW 3.1 km/h 3.1 km/h 72 % 0 mm
02:05 -7.9 °C -10.7 °C 34235.8 hPa NW 2.6 km/h 5.1 km/h 72 % 0 mm
02:10 -7.9 °C -10.7 °C 34235.8 hPa NW 2.6 km/h 12.9 km/h 72 % 0 mm
02:15 -7.9 °C -10.7 °C 34235.8 hPa Calm   5.1 km/h 73 % 0 mm
02:20 -7.9 °C -10.7 °C 34235.8 hPa Calm     73 % 0 mm
02:25 -7.9 °C -10.7 °C 34235.8 hPa Calm   2.6 km/h 73 % 0 mm
02:30 -7.9 °C -10.7 °C 34235.8 hPa Calm   5.1 km/h 73 % 0 mm
02:35 -7.9 °C -10.7 °C 34235.8 hPa West 2.6 km/h 2.6 km/h 73 % 0 mm
02:40 -7.9 °C -10.7 °C 34235.8 hPa Calm   2.6 km/h 73 % 0 mm
02:45 -8 °C -10.6 °C 34246 hPa Calm   7.7 km/h 74 % 0 mm
02:50 -8.1 °C -10.7 °C 34246 hPa Calm   2.6 km/h 74 % 0 mm
02:55 -8.1 °C -10.6 °C 34246 hPa West 7.7 km/h 7.7 km/h 75 % 0 mm
03:00 -8.1 °C -10.6 °C 34246 hPa West 6 km/h 6 km/h 75 % 0 mm
03:05 -8 °C -10.5 °C 34246 hPa WNW 6 km/h 6 km/h 75 % 0 mm
03:10 -8 °C -10.6 °C 34246 hPa WNW 2.6 km/h 15.6 km/h 74 % 0 mm
03:15 -8 °C -10.5 °C 34246 hPa WNW 12.9 km/h 15.6 km/h 75 % 0 mm
03:20 -8 °C -10.6 °C 34246 hPa NW 10.3 km/h 18.2 km/h 74 % 0 mm
03:25 -7.9 °C -10.6 °C 34246 hPa WNW 18.2 km/h 20.8 km/h 74 % 0 mm
03:30 -8 °C -10.5 °C 34246 hPa WNW 5.1 km/h 18.2 km/h 75 % 0 mm
03:35 -8 °C -10.5 °C 34246 hPa WNW 9 km/h 9 km/h 75 % 0 mm
03:40 -7.9 °C -10.4 °C 34256.2 hPa West 12.9 km/h 12.9 km/h 75 % 0 mm
03:45 -7.9 °C -10.4 °C 34246 hPa West 9 km/h 9 km/h 75 % 0 mm
03:50 -7.9 °C -10.3 °C 34246 hPa North 2.6 km/h 18.2 km/h 76 % 0 mm
03:55 -7.9 °C -10.2 °C 34246 hPa WNW 7.7 km/h 20.8 km/h 76 % 0 mm
04:00 -7.9 °C -10.2 °C 34246 hPa West 7.7 km/h 23.3 km/h 76 % 0 mm
04:05 -7.9 °C -10.2 °C 34246 hPa West 12.9 km/h 18.2 km/h 77 % 0 mm
04:10 -7.9 °C -10.2 °C 34246 hPa NW 2.6 km/h 10.3 km/h 77 % 0 mm
04:15 -7.9 °C -10.2 °C 34246 hPa Calm   10.3 km/h 77 % 0 mm
04:20 -7.9 °C -10.2 °C 34256.2 hPa NNW 6 km/h 6 km/h 77 % 0 mm
04:25 -8 °C -10.2 °C 34256.2 hPa NNE 6 km/h 6 km/h 77 % 0 mm
04:30 -8 °C -10.3 °C 34256.2 hPa NW 9 km/h 9 km/h 77 % 0 mm
04:35 -8.1 °C -10.2 °C 34256.2 hPa NW 11.9 km/h 11.9 km/h 78 % 0 mm
04:40 -8.1 °C -10.2 °C 34256.2 hPa West 9 km/h 9 km/h 78 % 0 mm
04:44 -8.1 °C -10.2 °C 34256.2 hPa NW 3.1 km/h 3.1 km/h 78 % 0 mm
04:50 -8.1 °C -10.2 °C 34269.7 hPa NW 7.7 km/h 7.7 km/h 78 % 0 mm
04:54 -8.1 °C -10.2 °C 34269.7 hPa Calm   7.7 km/h 78 % 0 mm
04:59 -8.1 °C -10.2 °C 34269.7 hPa Calm   7.7 km/h 78 % 0 mm
05:04 -8 °C -10.2 °C 34269.7 hPa Calm     78 % 0 mm
05:09 -8.1 °C -10.2 °C 34269.7 hPa NNW 3.1 km/h 3.1 km/h 78 % 0 mm
05:14 -8 °C -10.2 °C 34269.7 hPa Calm   5.1 km/h 78 % 0 mm
05:19 -8.1 °C -10.2 °C 34279.9 hPa NW 10.3 km/h 10.3 km/h 78 % 0 mm
05:24 -8.1 °C -10.2 °C 34279.9 hPa NW 9 km/h 9 km/h 78 % 0 mm
05:29 -8.1 °C -10.2 °C 34279.9 hPa NW 7.7 km/h 18.2 km/h 79 % 0 mm
05:34 -8.1 °C -10.2 °C 34279.9 hPa West 10.3 km/h 10.3 km/h 79 % 0 mm
05:39 -8.1 °C -10.1 °C 34279.9 hPa West 10.3 km/h 10.3 km/h 79 % 0 mm
05:44 -8.1 °C -10.2 °C 34279.9 hPa West 9 km/h 9 km/h 79 % 0 mm
05:49 -8.1 °C -10.1 °C 34279.9 hPa Calm   2.6 km/h 80 % 0 mm
05:54 -8.1 °C -10.1 °C 34279.9 hPa NW 5.1 km/h 7.7 km/h 79 % 0 mm
05:59 -8.1 °C -10.1 °C 34279.9 hPa Calm   7.7 km/h 79 % 0 mm
06:04 -8.1 °C -10.1 °C 34293.4 hPa West 3.1 km/h   79 % 0 mm
06:09 -8.1 °C -10.1 °C 34293.4 hPa West 3.1 km/h   79 % 0 mm
06:14 -8.1 °C -10.1 °C 34293.4 hPa Calm     79 % 0 mm
06:19 -8.1 °C -10.1 °C 34293.4 hPa Calm     79 % 0 mm
06:24 -8.1 °C -10.2 °C 34303.6 hPa Calm     79 % 0 mm
06:29 -8.1 °C -10.1 °C 34303.6 hPa Calm     79 % 0 mm
06:34 -8.1 °C -10.1 °C 34303.6 hPa Calm     80 % 0 mm
06:39 -8.1 °C -10.1 °C 34303.6 hPa East 2.6 km/h 2.6 km/h 80 % 0 mm
06:44 -8 °C -10.1 °C 34303.6 hPa ENE 2.6 km/h 10.3 km/h 79 % 0 mm
06:49 -8 °C -10.2 °C 34303.6 hPa ENE 5.1 km/h 10.3 km/h 78 % 0 mm
06:54 -7.9 °C -10.1 °C 34303.6 hPa Calm   5.1 km/h 78 % 0 mm
06:59 -7.9 °C -10.1 °C 34313.7 hPa ENE 2.6 km/h 5.1 km/h 78 % 0 mm
07:04 -7.9 °C -10.2 °C 34313.7 hPa NNE 2.6 km/h 7.7 km/h 77 % 0 mm
07:09 -7.9 °C -10.1 °C 34313.7 hPa Calm   7.7 km/h 77 % 0 mm
07:11 -7.9 °C -10.2 °C 34313.7 hPa Calm   7.7 km/h 76 % 0 mm
07:16 -7.9 °C -10.2 °C 34313.7 hPa Calm   5.1 km/h 76 % 0 mm
07:21 -7.8 °C -10.3 °C 34313.7 hPa Calm     75 % 0 mm
07:26 -7.8 °C -10.3 °C 34313.7 hPa North 3.1 km/h   75 % 0 mm
07:31 -7.8 °C -10.4 °C 34313.7 hPa Calm   2.6 km/h 74 % 0 mm
07:36 -7.8 °C -10.4 °C 34313.7 hPa Calm   2.6 km/h 74 % 0 mm
07:41 -7.8 °C -10.4 °C 34313.7 hPa Calm   2.6 km/h 74 % 0 mm
07:46 -7.7 °C -10.4 °C 34313.7 hPa ENE 2.6 km/h 5.1 km/h 74 % 0 mm
07:51 -7.7 °C -10.4 °C 34327.3 hPa ENE 9 km/h 9 km/h 74 % 0 mm
07:56 -7.7 °C -10.3 °C 34327.3 hPa NE 2.6 km/h 12.9 km/h 74 % 0 mm
08:01 -7.7 °C -10.1 °C 34327.3 hPa East 10.3 km/h 18.2 km/h 76 % 0 mm
08:06 -7.8 °C -9.9 °C 34327.3 hPa ENE 2.6 km/h 12.9 km/h 78 % 0 mm
08:11 -7.8 °C -9.8 °C 34327.3 hPa Calm   10.3 km/h 79 % 0 mm
08:16 -7.8 °C -9.8 °C 34327.3 hPa NE 5.1 km/h 10.3 km/h 79 % 0 mm
08:21 -7.9 °C -9.9 °C 34337.4 hPa ENE 7.7 km/h 12.9 km/h 79 % 0 mm
08:26 -7.8 °C -9.9 °C 34337.4 hPa ENE 5.1 km/h 10.3 km/h 79 % 0 mm
08:31 -7.8 °C -9.9 °C 34337.4 hPa Calm   7.7 km/h 79 % 0 mm
08:36 -7.8 °C -9.8 °C 34337.4 hPa NE 10.3 km/h 10.3 km/h 79 % 0 mm
08:41 -7.7 °C -9.8 °C 34337.4 hPa Calm   10.3 km/h 79 % 0 mm
08:46 -7.7 °C -9.8 °C 34337.4 hPa East 2.6 km/h 15.6 km/h 79 % 0 mm
08:51 -7.7 °C -9.9 °C 34337.4 hPa NE 10.3 km/h 15.6 km/h 77 % 0 mm
08:56 -7.7 °C -9.9 °C 34337.4 hPa NE 10.3 km/h 15.6 km/h 77 % 0 mm
09:01 -7.7 °C -9.9 °C 34337.4 hPa East 10.3 km/h 12.9 km/h 77 % 0 mm
09:06 -7.7 °C -10.1 °C 34337.4 hPa ENE 7.7 km/h 15.6 km/h 76 % 0 mm
09:11 -7.7 °C -9.9 °C 34337.4 hPa ENE 9 km/h 9 km/h 77 % 0 mm
09:16 -7.7 °C -9.9 °C 34337.4 hPa NE 11.9 km/h 11.9 km/h 77 % 0 mm
09:21 -7.7 °C -9.9 °C 34337.4 hPa ENE 10.3 km/h 10.3 km/h 77 % 0 mm
09:26 -7.7 °C -9.9 °C 34347.6 hPa NE 11.9 km/h 11.9 km/h 77 % 0 mm
09:31 -7.7 °C -9.9 °C 34347.6 hPa ESE 7.7 km/h 7.7 km/h 77 % 0 mm
09:36 -7.6 °C -9.9 °C 34337.4 hPa East 9 km/h 9 km/h 77 % 0 mm
09:41 -7.6 °C -9.8 °C 34337.4 hPa ENE 11.9 km/h 11.9 km/h 77 % 0 mm
09:46 -7.6 °C -9.9 °C 34347.6 hPa ENE 6 km/h 6 km/h 77 % 0 mm
09:51 -7.6 °C -9.7 °C 34347.6 hPa ENE 3.1 km/h 3.1 km/h 78 % 0 mm
09:56 -7.4 °C -9.6 °C 34347.6 hPa ENE 5.1 km/h 7.7 km/h 78 % 0 mm
10:01 -7.4 °C -9.7 °C 34337.4 hPa NE 5.1 km/h 12.9 km/h 77 % 0 mm
10:06 -7.3 °C -9.8 °C 34337.4 hPa ESE 5.1 km/h 12.9 km/h 76 % 0 mm
10:11 -7.3 °C -9.7 °C 34347.6 hPa NE 7.7 km/h 12.9 km/h 76 % 0 mm
10:16 -7.3 °C -9.6 °C 34347.6 hPa ENE 7.7 km/h 10.3 km/h 77 % 0 mm
10:21 -7.3 °C -9.6 °C 34347.6 hPa ENE 7.7 km/h 10.3 km/h 77 % 0 mm
10:26 -7.3 °C -9.6 °C 34347.6 hPa ENE 7.7 km/h 12.9 km/h 77 % 0 mm
10:31 -7.3 °C -9.5 °C 34347.6 hPa ENE 10.3 km/h 10.3 km/h 78 % 0 mm
10:36 -7.2 °C -9.4 °C 34347.6 hPa ESE 10.3 km/h 10.3 km/h 78 % 0 mm
10:41 -7.2 °C -9.4 °C 34347.6 hPa East 15 km/h 15 km/h 78 % 0 mm
10:46 -7.3 °C -9.4 °C 34347.6 hPa ESE 10.3 km/h 15.6 km/h 78 % 0 mm
10:51 -7.4 °C -9.4 °C 34347.6 hPa ESE 12.9 km/h 15.6 km/h 79 % 0 mm
10:56 -7.3 °C -9.3 °C 34347.6 hPa ESE 12.9 km/h 18.2 km/h 80 % 0 mm
11:01 -7.3 °C -9.3 °C 34347.6 hPa ESE 15.6 km/h 15.6 km/h 80 % 0 mm
11:06 -7.3 °C -9.3 °C 34361.1 hPa ESE 17.9 km/h 17.9 km/h 80 % 0 mm
11:11 -7.2 °C -9.1 °C 34361.1 hPa ESE 5.1 km/h 12.9 km/h 81 % 0 mm
11:16 -7.2 °C -9.3 °C 34361.1 hPa ESE 2.6 km/h 15.6 km/h 79 % 0 mm
11:21 -7.3 °C -9.3 °C 34347.6 hPa ESE 12.9 km/h 15.6 km/h 79 % 0 mm
11:26 -7.3 °C -9.2 °C 34347.6 hPa East 12.9 km/h 15.6 km/h 81 % 0 mm
11:31 -7.3 °C -9 °C 34347.6 hPa East 15.6 km/h 18.2 km/h 82 % 0 mm
11:36 -7.1 °C -9 °C 34347.6 hPa East 20.9 km/h 20.9 km/h 81 % 0 mm
11:41 -7.2 °C -9 °C 34347.6 hPa ESE 15.6 km/h 18.2 km/h 81 % 0 mm
11:46 -7.2 °C -9 °C 34347.6 hPa East 15.6 km/h 15.6 km/h 82 % 0 mm
11:50 -7.2 °C -8.9 °C 34347.6 hPa ESE 15.6 km/h 18.2 km/h 82 % 0 mm
11:55 -7.3 °C -9.1 °C 34347.6 hPa East 18.2 km/h 18.2 km/h 81 % 0 mm
12:00 -7.3 °C -9.1 °C 34347.6 hPa East 15.6 km/h 18.2 km/h 82 % 0 mm
12:05 -7.3 °C -9.2 °C 34347.6 hPa ESE 12.9 km/h 20.8 km/h 81 % 0 mm
12:10 -7.3 °C -9 °C 34347.6 hPa ESE 10.3 km/h 15.6 km/h 82 % 0 mm
12:15 -7.1 °C -8.9 °C 34347.6 hPa SSE 7.7 km/h 15.6 km/h 81 % 0 mm
12:20 -6.8 °C -8.6 °C 34347.6 hPa NE 10.3 km/h 15.6 km/h 81 % 0 mm
12:26 -6.9 °C -9 °C 34347.6 hPa ESE 12.9 km/h 18.2 km/h 79 % 0 mm
12:31 -7.1 °C -9 °C 34347.6 hPa ESE 15.6 km/h 18.2 km/h 80 % 0 mm
12:36 -6.9 °C -8.7 °C 34347.6 hPa SE 5.1 km/h 18.2 km/h 81 % 0 mm
12:41 -6.8 °C -8.8 °C 34347.6 hPa ESE 12.9 km/h 20.8 km/h 80 % 0 mm
12:46 -6.9 °C -8.9 °C 34347.6 hPa SE 10.3 km/h 18.2 km/h 80 % 0 mm
12:51 -6.8 °C -8.7 °C 34347.6 hPa NE 12.9 km/h 12.9 km/h 81 % 0 mm
12:56 -6.6 °C -8.6 °C 34337.4 hPa SE 15 km/h 15 km/h 80 % 0 mm
13:01 -6.5 °C -8.7 °C 34347.6 hPa SE 17.9 km/h 17.9 km/h 78 % 0 mm
13:06 -6.7 °C -9 °C 34347.6 hPa ESE 15 km/h 15 km/h 77 % 0 mm
13:11 -6.7 °C -8.7 °C 34337.4 hPa ESE 15 km/h 15 km/h 80 % 0 mm
13:16 -6.7 °C -8.8 °C 34337.4 hPa SSE 15 km/h 15 km/h 78 % 0 mm
13:21 -6.7 °C -8.8 °C 34337.4 hPa ESE 20.9 km/h 20.9 km/h 79 % 0 mm
13:26 -6.7 °C -8.6 °C 34337.4 hPa SE 17.9 km/h 17.9 km/h 81 % 0 mm
13:31 -6.5 °C -8.6 °C 34337.4 hPa SSE 20.9 km/h 20.9 km/h 79 % 0 mm
13:36 -6.3 °C -8.6 °C 34337.4 hPa ESE 18.2 km/h 18.2 km/h 78 % 0 mm
13:40 -6.4 °C -8.5 °C 34337.4 hPa SE 18.2 km/h 18.2 km/h 79 % 0 mm
13:45 -6.6 °C -8.7 °C 34337.4 hPa SE 10.3 km/h 23.3 km/h 78 % 0 mm
13:50 -6.5 °C -8.6 °C 34337.4 hPa East 18.2 km/h 20.8 km/h 79 % 0 mm
13:55 -6.5 °C -8.6 °C 34337.4 hPa ESE 18.2 km/h 20.8 km/h 79 % 0 mm
14:00 -6.6 °C -8.7 °C 34337.4 hPa SE 15.6 km/h 20.8 km/h 79 % 0 mm
14:05 -6.6 °C -8.7 °C 34337.4 hPa SE 15.6 km/h 23.3 km/h 79 % 0 mm
14:10 -6.4 °C -8.7 °C 34337.4 hPa ESE 15.6 km/h 20.8 km/h 77 % 0 mm
14:15 -6.3 °C -8.6 °C 34347.6 hPa NNE 2.6 km/h 20.8 km/h 77 % 0 mm
14:20 -6.3 °C -8.7 °C 34337.4 hPa East 10.3 km/h 20.8 km/h 76 % 0 mm
14:25 -6.2 °C -8.5 °C 34347.6 hPa SE 7.7 km/h 20.8 km/h 77 % 0 mm
14:30 -6.1 °C -8.6 °C 34337.4 hPa East 18.2 km/h 23.3 km/h 76 % 0 mm
14:35 -6.2 °C -8.7 °C 34347.6 hPa East 20.8 km/h 23.3 km/h 76 % 0 mm
14:40 -6.3 °C -8.8 °C 34337.4 hPa ESE 20.8 km/h 20.8 km/h 76 % 0 mm
14:45 -6.3 °C -8.6 °C 34347.6 hPa SE 7.7 km/h 20.8 km/h 78 % 0 mm
14:50 -6.4 °C -8.6 °C 34347.6 hPa East 10.3 km/h 23.3 km/h 78 % 0 mm
14:55 -6.4 °C -8.6 °C 34347.6 hPa ESE 15.6 km/h 25.9 km/h 78 % 0 mm
15:00 -6.3 °C -8.2 °C 34347.6 hPa SE 12.9 km/h 23.3 km/h 80 % 0 mm
15:05 -6.3 °C -8.5 °C 34347.6 hPa SE 18.2 km/h 23.3 km/h 78 % 0 mm
15:10 -6.4 °C -8.5 °C 34347.6 hPa SE 7.7 km/h 23.3 km/h 79 % 0 mm
15:15 -6.5 °C -8.6 °C 34347.6 hPa SE 7.7 km/h 23.3 km/h 79 % 0 mm
15:20 -6.6 °C -8.5 °C 34347.6 hPa SE 12.9 km/h 18.2 km/h 80 % 0 mm
15:25 -6.7 °C -8.7 °C 34347.6 hPa SE 7.7 km/h 20.8 km/h 80 % 0 mm
15:30 -6.6 °C -8.6 °C 34347.6 hPa SSE 15.6 km/h 18.2 km/h 80 % 0 mm
15:35 -6.6 °C -8.6 °C 34347.6 hPa Calm   15.6 km/h 80 % 0 mm
15:40 -6.6 °C -8.7 °C 34347.6 hPa SE 10.3 km/h 18.2 km/h 78 % 0 mm
15:45 -6.7 °C -9 °C 34347.6 hPa Calm   18.2 km/h 77 % 0 mm
15:50 -6.6 °C -8.8 °C 34337.4 hPa SSE 10.3 km/h 18.2 km/h 78 % 0 mm
15:55 -6.4 °C -8.7 °C 34337.4 hPa SE 12.9 km/h 15.6 km/h 77 % 0 mm
16:00 -6.4 °C -8.8 °C 34347.6 hPa NNE 10.3 km/h 20.8 km/h 77 % 0 mm
16:01 -6.4 °C -8.8 °C 34347.6 hPa SSE 7.7 km/h 20.8 km/h 77 % 0 mm
16:06 -6.3 °C -8.6 °C 34337.4 hPa SSE 7.7 km/h 25.9 km/h 77 % 0 mm
16:11 -6.2 °C -8.5 °C 34337.4 hPa SE 18.2 km/h 20.8 km/h 77 % 0 mm
Badalona-Progres Meteo
Elogios de Weather Underground - 2 mb

Guión original por  Jim McMurry - jmcmurry@mwt.net Adaptado para la plantilla por  Wim van der Kuil - Leuven-Template.eu

Usted encontrará nuestra información del tiempo también en:

UK Metoffice

European Weather Network

WeatherCloud

Weather Underground

Iberian Peninsula Weather Network

AWEKAS

Citizen Weather Observer Program (CWOP)

HAMweather, WeatherForYou, PWS Weather

Equipo utilizado:

Weather-station
Davis Vantage Vue

Weather-program
Weather Display

Weather-server
My Computer

Proveedor
My provider

Davis Vantage Vue

Weather Display

My Computer

My provider